TimeMST,TemperatureF,Dew PointF,Humidity,Sea Level PressureIn,VisibilityMPH,Wind Direction,Wind SpeedMPH,Gust SpeedMPH,PrecipitationIn,Events,Conditions,WindDirDegrees,DateUTC
12:53 AM,70.0,64.9,84,29.96,10.0,Calm,Calm,-,0.03,Rain,Light Rain,0,2013-08-31 07:53:00
1:53 AM,70.0,64.9,84,29.93,10.0,South,3.5,-,0.01,,Mostly Cloudy,190,2013-08-31 08:53:00
2:53 AM,71.1,64.0,78,29.91,10.0,SSW,3.5,-,N/A,,Clear,200,2013-08-31 09:53:00
3:53 AM,71.1,66.0,84,29.92,10.0,Calm,Calm,-,N/A,,Mostly Cloudy,0,2013-08-31 10:53:00
4:53 AM,71.1,66.9,87,29.92,10.0,Calm,Calm,-,N/A,,Overcast,0,2013-08-31 11:53:00
5:53 AM,71.1,66.9,87,29.94,10.0,Calm,Calm,-,N/A,,Overcast,0,2013-08-31 12:53:00
6:53 AM,71.1,64.9,81,29.96,10.0,Calm,Calm,-,N/A,,Mostly Cloudy,0,2013-08-31 13:53:00
7:53 AM,72.0,64.0,76,29.99,10.0,Calm,Calm,-,N/A,,Scattered Clouds,0,2013-08-31 14:53:00
8:53 AM,73.9,62.1,66,29.98,10.0,Calm,Calm,-,N/A,,Overcast,0,2013-08-31 15:53:00
9:53 AM,75.9,63.0,64,29.98,10.0,Calm,Calm,-,N/A,,Partly Cloudy,0,2013-08-31 16:53:00
11:53 AM,81.0,61.0,50,29.94,10.0,North,3.5,-,N/A,,Scattered Clouds,10,2013-08-31 18:53:00
12:53 PM,82.0,62.1,51,29.92,10.0,Calm,Calm,-,N/A,,Clear,0,2013-08-31 19:53:00
1:53 PM,81.0,60.1,49,29.89,10.0,Variable,3.5,-,N/A,,Clear,0,2013-08-31 20:53:00
2:53 PM,82.0,60.1,47,29.87,10.0,SSW,3.5,-,N/A,,Clear,200,2013-08-31 21:53:00
3:53 PM,79.0,61.0,54,29.87,10.0,SW,8.1,-,N/A,,Clear,220,2013-08-31 22:53:00
4:53 PM,80.1,60.1,50,29.86,10.0,SSW,5.8,-,N/A,,Clear,210,2013-08-31 23:53:00
5:53 PM,80.1,61.0,52,29.85,10.0,WSW,4.6,-,N/A,,Clear,250,2013-09-01 00:53:00
6:53 PM,79.0,60.1,52,29.86,10.0,Calm,Calm,-,N/A,,Clear,0,2013-09-01 01:53:00
7:53 PM,77.0,61.0,58,29.88,10.0,West,4.6,-,N/A,,Clear,270,2013-09-01 02:53:00
8:53 PM,75.9,62.1,62,29.89,10.0,Calm,Calm,-,N/A,,Clear,0,2013-09-01 03:53:00
9:53 PM,75.9,62.1,62,29.89,10.0,SSW,3.5,-,N/A,,Clear,210,2013-09-01 04:53:00
10:53 PM,75.0,63.0,66,29.88,10.0,Calm,Calm,-,N/A,,Scattered Clouds,0,2013-09-01 05:53:00
11:53 PM,75.0,62.1,64,29.88,10.0,Calm,Calm,-,N/A,,Clear,0,2013-09-01 06:53:00